Location: Hohe Wand Waldeggerhaus
(47.8500°N, 16.0440°E)
Time: 08:39:34
(UTC+02:00)

Envisat - Pass Details

Date: 27 May 2024
Orbit: 762 x 764 km, 98.3° (Epoch: 13 June)

Event Time Altitude Azimuth Distance (km) Brightness Sun altitude
Rises 04:19:57 0° 14° (NNE) 3,239 7.3 -6.7°
Reaches altitude 10° 04:22:16 10° 15° (NNE) 2,308 6.5 -6.4°
Maximum altitude 04:27:22 83° 104° (ESE) 774 3.1 -5.8°
Drops below altitude 10° 04:32:26 10° 193° (SSW) 2,291 5.0 -5.1°
Sets 04:34:43 0° 194° (SSW) 3,212 5.7 -4.9°
